Location: Melbourne
(37.8666°S, 145.1333°E)
Time: 04:24:19
(UTC+10:00)

Hubble Space Telescope - Visible Passes

Search period start: 27 May 2016 00:00
Search period end: 06 June 2016 00:00
Orbit: 539 x 543 km, 28.5° (Epoch: 25 May)

Date Brightness Start Highest point End Pass type
(mag) Time Alt. Az. Time Alt. Az. Time Alt. Az.
27 May 3.9 04:25:29 11° NE 04:25:29 11° NE 04:25:45 10° NE visible
27 May 2.8 06:00:52 12° NW 06:03:10 18° N 06:06:04 10° NNE visible
28 May 2.9 05:51:49 14° NW 05:53:24 16° NNW 05:56:04 10° NNE visible
29 May 3.0 05:42:45 14° NNW 05:43:38 14° NNW 05:45:56 10° NNE visible
30 May 3.2 05:33:42 12° NNW 05:33:50 12° NNW 05:35:36 10° N visible
